Wetbulb
44.61 45.03 45.69 46.47 46.97 46.96 46.81 46.96 47.81 48.37 48.62 48.37 48.62 48.91 49.16 49.32 49.40 49.84 50.59 51.36 52.32 53.37 54.29 55.27 55.51 55.38 54.98 54.23 53.89 53.65 53.57 53.49 53.30 53.38 53.44 53.04 52.46 51.94 51.47 51.11 50.68 50.28 49.88 49.81 49.49 49.28 48.97 48.70 48.87 49.05 49.03 48.79 48.18 47.83 47.62 47.57 46.95 46.48 45.83 45.12 44.80 44.28 43.81 43.68 43.64 43.13 42.54 42.42 43.06
44.17 44.59 45.50 46.82 47.26 46.93 46.46 46.60 47.15 47.64 47.99 48.15 48.57 48.77 49.00 49.15 49.31 49.59 50.23 50.88 51.96 53.06 54.09 55.07 55.41 55.13 54.59 54.00 53.86 53.54 53.40 53.25 53.03 53.03 53.10 52.83 52.37 52.01 51.52 51.21 50.74 50.22 49.87 49.49 49.30 49.23 48.95 48.54 48.56 48.69 48.79 48.68 48.10 47.64 47.38 47.52 46.90 46.15 45.43 44.42 44.47 44.02 43.73 43.68 43.90 43.47 42.92 42.76 42.72
44.23 44.52 44.93 45.13 45.31 45.41 45.53 45.82 46.01 46.22 46.60 47.36 48.23 48.64 48.93 49.10 49.34 49.62 50.13 50.79 51.74 52.63 53.52 54.58 55.12 54.97 54.44 53.82 53.70 53.46 53.37 53.18 52.97 52.77 52.71 52.65 52.41 51.88 51.60 51.27 50.78 50.38 50.25 49.90 49.37 49.28 49.12 48.63 48.75 48.92 49.01 48.65 47.99 47.50 47.24 46.96 46.74 46.15 45.35 44.34 44.42 44.26 44.10 44.27 44.07 43.47 43.18 43.39 42.64
44.07 44.22 44.34 44.51 44.28 44.36 44.74 45.51 45.49 45.72 46.22 47.28 47.78 48.25 48.72 49.11 49.30 49.58 50.11 50.59 51.31 52.08 52.92 53.88 54.67 54.98 54.67 54.17 53.73 53.47 53.26 53.42 52.99 52.69 52.44 52.48 52.31 51.90 51.44 51.34 50.77 50.52 50.23 49.87 49.46 49.12 48.94 48.62 48.89 49.05 49.00 48.57 47.67 47.39 47.28 47.26 46.67 46.27 45.76 45.04 44.65 44.41 44.34 44.75 44.39 43.90 43.60 43.60 42.93
44.13 44.41 44.63 44.68 44.27 44.41 44.78 45.12 45.10 45.46 46.07 47.02 47.60 48.12 48.49 48.85 49.18 49.49 49.83 50.34 51.06 51.91 52.83 53.63 54.31 54.75 54.93 54.37 53.53 53.15 52.93 53.02 53.64 53.28 52.61 52.29 52.13 51.84 51.49 51.17 50.80 50.59 50.27 49.83 49.42 49.12 48.97 48.58 48.84 49.03 48.88 48.43 47.94 47.62 47.34 47.20 46.45 46.10 45.84 45.57 45.07 44.82 44.61 44.73 44.55 44.22 43.93 43.89 43.39
44.17 44.29 44.47 44.72 44.37 44.51 44.88 45.23 45.02 45.42 46.00 46.76 46.95 47.28 47.83 48.50 48.95 49.19 49.48 50.04 50.85 51.88 52.94 54.02 54.61 54.98 54.80 53.98 53.24 52.95 52.88 52.95 53.37 53.18 52.75 52.06 51.98 51.77 51.43 50.94 50.68 50.69 50.58 49.99 49.44 49.02 48.81 48.58 48.95 48.92 48.72 48.37 47.81 47.40 47.12 46.71 46.32 45.93 45.49 45.34 45.12 44.82 44.70 44.57 44.53 44.26 43.89 43.60 42.97
44.06 44.20 44.39 44.56 44.42 44.53 44.81 44.86 45.11 45.41 45.83 46.26 46.26 46.46 46.91 47.69 48.26 48.74 49.32 50.09 51.03 52.16 53.28 54.67 55.05 55.07 54.84 54.24 53.92 53.50 53.11 53.07 52.85 52.73 52.45 52.18 51.96 51.58 51.25 51.07 50.67 50.70 50.56 50.10 49.49 49.06 48.91 48.56 48.83 49.04 49.05 48.89 47.94 46.93 46.30 46.48 46.23 45.68 45.28 45.02 45.00 44.75 44.47 44.07 44.31 44.14 43.73 42.88 42.29
44.10 44.20 44.44 44.59 44.66 44.47 44.26 44.32 44.86 45.16 45.57 46.00 45.95 46.13 46.48 47.13 47.67 48.46 49.26 50.23 51.23 52.32 53.46 54.63 54.97 55.17 55.12 54.93 54.57 54.05 53.46 52.88 52.61 52.40 52.29 52.19 51.70 51.41 51.20 51.08 50.65 50.63 50.53 50.25 49.59 49.15 48.91 48.71 48.88 48.92 48.84 48.55 47.93 46.85 45.87 45.52 45.52 45.27 44.94 44.74 44.89 44.69 44.28 43.67 43.76 43.81 43.69 42.67 42.02
43.92 44.14 44.29 44.42 44.45 44.38 44.27 44.32 44.39 44.73 45.01 45.28 45.51 45.76 46.26 47.08 47.69 48.30 49.07 49.92 51.41 52.78 53.96 54.50 54.85 55.07 55.15 55.05 54.85 54.30 53.78 53.16 52.58 52.35 52.26 52.15 51.65 51.29 51.04 51.00 50.79 50.74 50.68 50.37 49.80 49.20 48.79 48.76 48.87 48.83 48.73 48.45 47.79 46.92 45.99 45.11 44.95 44.79 44.61 44.57 44.52 44.27 44.11 43.85 43.63 43.59 43.35 42.71 42.06
43.29 43.52 43.79 43.91 43.96 44.19 44.37 44.32 44.46 44.55 44.69 44.93 45.20 45.61 46.33 47.68 47.99 48.41 49.02 50.22 51.70 52.94 53.80 54.30 54.44 54.50 54.62 54.70 54.68 54.42 54.01 53.48 52.92 52.41 52.09 51.97 51.49 51.01 50.72 50.80 50.59 50.57 50.69 50.51 49.98 49.28 48.77 48.63 48.60 48.67 48.54 48.27 47.54 46.74 45.78 45.02 44.75 44.49 44.53 44.94 44.57 43.94 43.38 43.12 43.07 43.04 43.13 43.08 42.27
42.87 43.18 43.40 43.72 43.67 44.04 44.29 43.96 44.38 44.67 44.88 44.93 45.13 45.39 45.97 46.91 47.36 48.13 49.17 50.44 51.29 52.24 53.20 54.05 54.11 54.04 54.06 54.26 54.36 54.34 54.23 53.78 53.25 52.70 52.14 51.72 51.39 50.91 50.55 50.51 50.35 50.39 50.46 50.54 50.14 49.65 49.05 48.74 48.42 48.21 48.03 47.99 47.23 46.46 45.74 44.86 44.57 44.40 44.36 44.66 44.32 43.67 43.07 42.62 42.99 43.07 43.11 43.15 42.30
42.87 43.02 43.29 43.53 43.53 43.62 43.70 43.53 44.12 44.49 44.70 44.70 44.89 45.13 45.44 45.75 46.45 47.62 48.83 49.79 50.65 51.48 52.45 53.53 53.60 53.66 53.68 53.88 54.11 54.36 54.39 54.00 53.17 52.56 52.08 51.57 51.17 50.77 50.40 50.28 50.15 50.05 50.14 50.35 50.19 49.80 49.22 48.63 48.21 47.77 47.48 47.40 47.12 46.55 45.79 44.74 44.45 44.23 44.14 44.06 43.84 43.49 43.01 42.71 42.80 43.10 43.36 43.10 42.35
42.81 43.01 43.15 43.36 43.30 43.30 43.26 43.45 43.87 44.19 44.36 44.32 44.62 44.86 45.28 45.57 46.27 47.09 48.04 48.82 49.89 50.83 51.58 52.34 53.01 53.38 53.48 53.68 53.82 54.08 54.24 54.08 53.41 52.77 52.30 51.71 51.24 50.72 50.34 50.22 50.07 49.99 50.01 50.15 50.03 49.78 49.25 48.60 48.10 47.58 47.21 46.98 47.02 46.65 45.89 44.84 44.36 44.15 44.09 43.88 43.66 43.35 43.10 42.79 42.83 43.05 43.09 42.66 42.51
42.62 42.83 42.87 43.03 43.01 43.10 43.25 43.37 43.81 44.08 44.21 43.93 44.25 44.69 44.99 45.29 46.09 46.62 47.08 47.64 48.54 49.53 50.51 51.37 52.26 52.94 53.38 53.53 53.58 53.72 53.83 54.01 53.86 53.15 52.47 51.94 51.40 50.84 50.46 50.33 50.15 49.91 49.93 50.09 50.01 49.60 49.08 48.48 47.99 47.58 47.20 46.83 46.69 46.48 45.95 45.06 44.62 44.36 44.14 43.93 43.62 43.48 43.26 43.05 42.96 42.91 42.74 42.43 42.51
42.31 42.53 42.73 42.87 42.80 42.93 43.17 43.24 43.75 43.99 44.01 43.95 44.36 44.80 45.07 45.42 45.91 46.38 46.67 46.77 47.38 48.53 49.65 50.61 51.41 52.19 52.80 53.29 53.33 53.43 53.59 53.80 53.76 53.48 52.96 52.46 51.75 51.17 50.57 50.43 50.19 50.04 49.89 50.06 49.98 49.67 49.13 48.48 48.01 47.66 47.37 46.89 46.58 46.34 45.84 45.16 44.88 44.66 44.53 44.32 44.01 43.79 43.57 43.35 43.05 42.96 42.90 42.64 42.47
42.12 42.42 42.65 42.73 42.65 42.73 43.04 43.16 43.82 44.08 44.18 44.26 44.60 44.97 45.26 45.43 45.77 46.14 46.33 46.41 46.99 47.87 48.74 49.35 50.25 51.00 51.79 52.54 53.06 53.48 53.65 53.65 53.62 53.51 53.22 52.87 52.20 51.51 50.88 50.38 50.12 49.98 49.77 49.65 49.73 49.59 49.25 48.70 48.35 47.94 47.50 47.03 46.70 46.42 45.95 45.35 45.01 44.87 44.70 44.62 44.40 44.18 44.01 43.83 43.40 43.22 43.08 43.04 42.87
41.92 42.13 42.41 42.51 42.46 42.50 42.76 43.08 43.64 44.01 44.17 44.37 44.57 44.81 45.01 45.27 45.56 45.96 46.39 46.85 47.00 47.33 47.55 47.92 48.93 49.91 50.72 51.50 52.22 52.80 53.30 53.45 53.36 53.28 53.29 53.07 52.66 52.09 51.26 50.51 50.14 49.95 49.77 49.53 49.45 49.39 49.17 48.89 48.66 48.27 47.79 47.27 46.87 46.51 46.18 45.70 45.22 44.96 44.79 44.83 44.61 44.44 44.31 44.40 43.88 43.48 43.26 43.26 43.27
41.75 41.96 42.23 42.29 42.29 42.43 42.68 42.92 43.29 43.64 43.91 44.02 44.35 44.74 44.96 45.23 45.26 45.61 46.09 46.68 46.67 46.71 46.78 47.04 47.99 48.86 49.70 50.26 50.82 51.68 52.38 52.79 52.95 53.09 53.14 53.29 53.02 52.56 51.85 50.97 50.38 50.05 49.92 49.57 49.32 49.28 49.14 48.89 48.62 48.28 47.84 47.35 47.04 46.68 46.43 45.92 45.44 45.09 44.92 44.87 44.74 44.52 44.40 44.53 44.14 43.83 43.56 43.39 43.61
41.69 41.87 42.01 42.11 42.23 42.44 42.75 43.16 43.34 43.52 43.77 44.07 44.42 44.64 44.79 44.94 45.01 45.23 45.56 45.99 46.39 46.49 46.61 46.86 47.54 48.28 48.97 49.60 50.11 50.70 51.47 52.09 52.37 52.55 52.88 53.22 53.21 52.77 52.14 51.25 50.62 50.24 49.91 49.71 49.46 49.25 49.24 49.13 48.75 48.30 47.82 47.40 46.97 46.72 46.43 46.00 45.66 45.26 45.00 44.87 44.65 44.48 44.35 44.22 44.04 43.96 43.74 43.52 43.87
41.65 41.79 41.94 42.15 42.37 42.55 42.82 43.16 43.34 43.56 43.81 44.14 44.29 44.35 44.53 44.78 44.93 44.97 45.07 45.36 46.04 46.31 46.51 46.82 47.45 48.02 48.71 49.30 49.71 50.21 50.62 51.39 51.77 52.03 52.35 52.72 52.91 52.68 52.15 51.43 50.77 50.37 50.07 49.78 49.40 49.28 49.16 49.01 48.84 48.44 47.92 47.41 46.93 46.55 46.21 46.00 45.61 45.26 45.00 44.87 44.69 44.35 44.13 44.04 43.95 43.78 43.69 43.61 43.69
41.84 42.02 42.15 42.43 42.57 42.73 42.94 43.20 43.42 43.66 43.85 44.02 44.12 44.20 44.41 44.63 44.83 44.89 44.96 45.31 45.77 46.04 46.22 46.62 47.20 47.98 48.67 49.30 49.69 49.93 50.40 50.97 51.36 51.69 52.04 52.40 52.62 52.70 52.45 52.05 51.27 50.62 50.15 49.80 49.47 49.26 49.05 48.96 48.84 48.46 47.96 47.50 46.96 46.45 46.16 45.87 45.53 45.18 44.87 44.74 44.69 44.26 43.91 43.74 43.69 43.60 43.52 43.43 43.52
42.12 42.28 42.50 42.71 42.78 43.01 43.23 43.49 43.69 43.76 43.90 43.98 44.13 44.30 44.41 44.61 44.72 44.86 45.14 45.32 45.52 45.70 46.06 46.62 47.41 48.18 48.87 49.60 49.89 50.18 50.37 50.86 51.31 51.70 52.04 52.23 52.38 52.66 52.77 52.76 51.68 50.77 50.17 49.84 49.53 49.24 49.05 48.89 48.72 48.53 48.08 47.47 47.00 46.54 46.19 45.95 45.53 45.09 44.74 44.48 44.35 44.04 43.69 43.39 43.44 43.39 43.30 43.21 43.25
42.28 42.58 42.70 42.92 43.03 43.39 43.76 43.82 43.72 43.78 43.76 43.87 43.98 44.18 44.30 44.42 44.64 44.88 44.94 45.02 45.20 45.37 45.85 46.72 47.76 48.54 49.27 49.97 50.26 50.36 50.51 50.83 51.14 51.63 51.92 52.07 52.32 52.55 52.78 52.90 51.83 50.87 50.08 49.79 49.50 49.22 48.93 48.86 48.71 48.42 48.09 47.55 46.99 46.56 46.16 45.90 45.61 45.14 44.66 44.35 44.17 43.91 43.51 43.17 43.22 43.22 43.17 43.16 43.16
42.24 42.53 42.81 43.31 43.10 43.16 43.31 43.39 43.35 43.41 43.49 43.69 43.84 43.95 44.15 44.32 44.51 44.65 44.72 44.65 44.76 45.01 45.58 46.54 47.62 48.58 49.44 50.09 50.52 50.68 50.64 50.74 50.87 51.23 51.54 51.84 52.17 52.36 52.45 52.45 51.91 51.17 50.45 50.08 50.08 50.03 49.73 49.29 48.72 48.38 48.05 47.66 47.09 46.64 46.24 45.80 45.60 45.22 44.79 44.27 44.09 43.73 43.38 42.98 43.03 43.00 43.00 42.94 43.08
42.07 42.22 42.52 42.72 42.74 42.81 42.89 42.93 42.99 43.03 43.24 43.50 43.72 43.96 44.05 44.18 44.26 44.43 44.50 44.48 44.64 44.97 45.40 46.13 47.27 48.39 49.34 50.10 50.63 50.84 50.95 50.92 50.79 50.88 51.06 51.33 51.60 51.78 52.01 52.10 51.91 51.57 51.05 50.76 51.93 52.39 52.14 51.24 49.96 48.98 48.24 47.85 47.31 46.90 46.36 45.80 45.55 45.26 44.83 44.41 44.14 43.83 43.38 42.81 42.67 42.77 42.82 42.85 43.00
41.84 41.87 41.91 42.10 42.24 42.28 42.33 42.45 42.58 42.77 43.09 43.39 43.62 43.83 43.95 44.19 44.38 44.44 44.35 44.37 44.54 44.86 45.40 46.04 47.12 48.23 49.42 50.07 50.31 50.67 50.85 51.01 50.83 50.88 50.89 50.98 51.15 51.29 51.47 51.69 51.77 51.55 51.39 51.69 52.91 53.54 53.55 53.20 52.08 50.59 49.01 47.99 47.41 46.91 46.41 45.79 45.58 45.24 44.91 44.62 44.36 44.06 43.48 42.82 42.59 42.55 42.69 42.89 42.92
41.40 41.44 41.52 41.77 41.77 41.82 41.94 42.21 42.49 42.64 42.85 43.13 43.38 43.61 43.87 44.25 44.59 44.52 44.35 44.30 44.49 44.86 45.35 46.16 46.90 48.35 49.61 49.88 49.92 50.09 50.30 50.64 50.74 50.79 50.84 50.89 50.93 50.93 51.07 51.39 51.64 51.55 51.67 52.48 53.38 53.92 54.11 54.22 53.62 52.27 50.50 48.33 47.68 46.97 46.42 45.84 45.50 45.20 44.95 44.70 44.58 44.15 43.63 42.98 42.71 42.75 42.83 42.93 42.91
41.16 41.19 41.34 41.44 41.37 41.48 41.71 42.09 42.23 42.29 42.62 42.93 43.21 43.63 43.97 44.33 44.22 44.25 44.23 44.33 44.53 45.05 45.64 46.41 47.35 48.26 49.00 49.46 49.41 49.59 49.90 50.18 50.55 50.70 50.71 50.71 50.80 50.89 50.98 51.21 51.38 51.71 52.38 53.23 53.79 54.20 54.56 54.87 54.68 53.85 52.27 49.78 48.17 47.24 46.66 46.17 45.59 45.28 45.06 44.82 44.57 44.28 43.81 43.47 43.17 43.04 42.95 42.89 42.91
40.94 41.16 41.30 41.21 41.17 41.36 41.58 41.74 41.89 42.10 42.47 42.82 43.26 43.62 44.00 44.09 44.20 44.19 44.28 44.39 44.77 45.36 46.07 47.08 47.97 48.48 48.72 48.95 49.08 49.26 49.52 49.88 50.24 50.38 50.43 50.35 50.53 50.71 50.98 51.16 51.34 52.05 53.00 54.05 54.21 54.53 54.79 55.17 55.33 55.03 53.92 51.71 49.13 47.72 47.02 46.52 45.86 45.47 45.16 44.99 44.83 44.49 44.15 43.85 43.64 43.35 43.12 42.98 42.97
41.19 41.51 41.60 41.38 41.17 41.17 41.33 41.50 41.74 41.98 42.38 42.85 43.22 43.59 43.88 44.29 44.50 44.65 44.85 44.99 45.48 46.31 47.37 48.57 49.03 48.90 48.55 48.32 48.67 49.02 49.43 49.75 50.10 50.15 50.16 49.98 50.21 50.48 50.80 51.25 51.34 51.96 52.93 54.22 54.53 54.77 55.01 55.33 55.57 55.49 54.87 53.27 50.13 48.29 47.24 46.84 46.18 45.74 45.43 45.37 45.08 44.74 44.36 44.07 43.56 43.21 43.12 43.15 43.01
41.69 41.78 41.70 41.35 41.00 40.90 41.10 41.41 41.64 41.93 42.24 42.78 43.21 43.76 44.36 44.69 45.02 45.38 45.87 46.44 47.19 48.03 48.93 49.21 48.86 48.37 48.01 48.01 48.14 48.49 49.07 49.47 49.92 50.11 49.85 49.58 50.21 50.61 50.97 51.10 51.24 51.82 52.84 54.10 54.61 54.88 55.18 55.30 55.59 55.64 55.33 54.35 51.19 48.80 47.40 46.92 46.40 46.00 45.73 45.72 45.30 44.91 44.58 44.24 43.64 43.28 43.10 43.05 43.08
41.76 41.76 41.43 40.97 40.69 40.70 40.97 41.42 41.69 42.00 42.40 42.80 43.32 43.83 44.21 44.46 44.91 45.60 46.66 47.81 48.57 48.81 48.91 48.51 47.97 47.61 47.52 47.60 47.69 48.00 48.58 48.98 49.43 49.75 49.89 49.54 49.76 50.12 50.60 50.96 51.09 51.77 52.74 54.06 54.53 54.86 55.15 55.37 55.56 55.71 55.72 55.23 52.27 49.49 47.59 47.04 46.66 46.30 46.08 45.86 45.44 45.05 44.66 44.45 43.89 43.41 43.17 43.34 43.37
41.51 41.21 40.92 40.52 40.41 40.53 40.91 41.32 41.78 42.27 42.67 42.94 43.05 43.08 43.27 43.52 44.00 44.65 45.68 47.22 48.26 48.41 48.15 47.79 47.47 47.34 47.34 47.52 47.52 47.74 48.23 48.71 49.25 49.92 50.33 50.25 49.99 50.08 50.43 50.82 51.04 51.83 52.94 54.09 54.53 54.82 55.22 55.40 55.64 55.87 55.92 55.71 53.07 50.17 47.95 47.21 46.91 46.61 46.30 45.95 45.48 45.05 44.66 44.32 43.93 43.66 43.56 43.72 43.85
40.90 40.68 40.45 40.30 40.42 40.65 40.99 41.37 41.87 42.19 42.41 42.41 42.28 42.17 42.13 42.25 42.39 42.76 43.60 45.05 46.40 47.11 47.51 47.61 47.52 47.65 47.74 47.92 47.92 48.05 48.41 49.02 49.38 49.70 49.98 49.98 49.94 50.08 50.34 50.61 50.86 51.95 53.16 54.15 54.61 54.88 55.15 55.47 55.70 55.87 55.88 55.72 53.33 50.61 48.32 47.26 46.95 46.70 46.22 45.74 45.27 44.88 44.57 44.35 43.87 43.82 43.89 44.15 44.37
40.46 40.42 40.38 40.49 40.61 40.83 41.06 41.34 41.55 41.66 41.56 41.37 41.41 41.37 41.29 41.25 41.29 41.61 42.26 43.64 44.75 45.57 46.27 47.11 47.60 47.96 48.10 48.05 48.10 48.28 48.59 48.89 49.15 49.51 49.79 49.98 49.90 49.99 50.12 50.39 50.78 51.95 53.15 54.08 54.51 54.85 55.07 55.34 55.61 55.87 55.84 55.39 53.13 50.69 48.57 47.32 46.83 46.44 45.96 45.31 44.79 44.52 44.38 44.25 43.98 43.98 44.19 44.50 44.59
40.88 40.80 40.77 40.72 40.68 40.73 40.70 40.75 40.88 40.89 40.81 40.65 40.57 40.52 40.46 40.59 40.90 41.36 42.15 43.34 43.94 44.53 45.35 46.54 47.29 47.65 47.74 47.70 47.79 48.23 48.63 48.76 49.11 49.51 49.83 50.06 49.89 49.90 49.85 49.98 50.47 51.69 52.88 53.94 54.42 54.81 55.08 55.35 55.61 55.87 55.67 54.87 52.75 50.49 48.59 47.42 46.93 46.27 45.61 45.09 44.56 44.17 44.07 44.11 43.98 44.02 44.33 44.59 44.54
41.44 41.25 41.03 40.85 40.74 40.59 40.52 40.49 40.53 40.37 40.29 40.17 40.27 40.17 40.10 40.27 40.61 41.20 42.10 43.16 43.54 44.22 45.26 46.36 46.89 47.07 47.16 47.07 47.34 47.79 48.41 48.89 49.30 49.52 49.83 50.19 50.02 49.85 49.63 49.85 50.11 51.03 52.37 53.54 54.25 54.62 54.99 55.26 55.61 55.69 55.27 54.22 52.07 50.00 48.24 47.21 46.89 46.27 45.56 44.90 44.38 44.16 44.16 44.20 44.20 44.15 44.23 44.45 44.76
41.47 41.33 41.16 40.87 40.68 40.57 40.49 40.49 40.29 40.09 39.97 40.00 40.21 40.19 40.20 40.40 40.60 41.15 42.14 43.42 43.79 44.55 45.38 46.22 46.40 46.53 46.58 46.67 46.94 47.33 47.86 48.74 49.38 49.74 49.69 49.91 49.87 49.84 49.76 49.67 49.94 50.64 51.79 53.00 53.94 54.49 54.95 55.26 55.56 55.59 55.13 53.82 51.76 49.69 47.79 46.80 46.49 45.99 45.55 45.02 44.54 44.37 44.29 44.56 44.56 44.42 44.45 44.76 46.36
41.38 41.24 40.99 40.65 40.45 40.37 40.29 40.25 40.13 40.04 40.12 40.11 40.18 40.24 40.21 40.37 40.62 41.31 42.29 43.26 43.84 44.60 45.29 45.68 45.73 45.82 46.09 46.45 46.53 46.75 47.10 47.80 48.74 49.32 49.54 49.41 49.72 50.04 50.23 49.80 49.85 50.52 51.45 52.72 53.52 54.24 54.78 55.17 55.52 55.64 55.30 54.12 51.85 49.55 47.57 46.58 46.04 45.68 45.32 45.05 44.62 44.31 44.23 44.60 44.64 44.55 44.63 45.07 48.07
40.95 40.88 40.61 40.45 40.45 40.32 40.24 40.07 39.99 39.95 40.07 40.07 40.06 40.02 40.13 40.41 40.92 41.68 42.35 42.93 43.54 44.17 44.81 45.07 45.16 45.20 45.56 46.23 46.05 45.96 45.96 46.44 47.36 48.20 48.85 49.11 49.70 50.55 50.87 50.10 49.98 50.39 51.23 52.42 53.18 53.94 54.42 54.99 55.34 55.64 55.34 54.07 51.71 49.28 47.34 46.53 45.81 45.27 44.91 44.87 44.52 44.13 44.14 44.33 44.46 44.46 44.49 44.84 47.94
40.65 40.61 40.73 40.77 40.48 40.35 40.14 39.98 39.74 39.66 39.70 39.78 39.70 39.93 40.37 40.94 41.31 41.55 41.83 42.27 42.97 43.77 44.42 44.59 44.63 44.63 44.85 45.48 45.30 45.00 44.70 44.92 45.74 46.70 47.70 48.69 49.46 50.32 50.78 50.41 50.30 50.44 50.93 51.91 52.84 53.54 54.15 54.82 55.26 55.69 55.39 53.63 50.99 48.69 47.16 46.48 45.58 44.86 44.50 44.51 44.39 44.18 44.01 43.97 44.11 44.19 44.27 44.30 46.27
MSLP
1016.52 1016.36 1016.24 1016.08 1015.92 1015.80 1015.68 1015.52 1015.36 1015.24 1015.08 1014.92 1014.80 1014.64 1014.44 1014.28 1014.08 1013.92 1013.64 1013.48 1013.20 1012.92 1012.64 1012.40 1012.16 1011.92 1011.80 1011.68 1011.64 1011.60 1011.52 1011.48 1011.44 1011.44 1011.48 1011.48 1011.52 1011.60 1011.68 1011.80 1011.92 1012.08 1012.16 1012.24 1012.36 1012.52 1012.72 1012.88 1013.04 1013.16 1013.28 1013.36 1013.56 1013.68 1013.80 1013.88 1014.00 1014.16 1014.28 1014.40 1014.52 1014.60 1014.72 1014.84 1014.88 1014.92 1015.00 1015.08 1015.00
1016.40 1016.24 1016.08 1015.92 1015.80 1015.64 1015.52 1015.36 1015.20 1015.04 1014.92 1014.80 1014.64 1014.48 1014.32 1014.12 1013.96 1013.76 1013.48 1013.28 1013.08 1012.80 1012.52 1012.20 1012.00 1011.80 1011.68 1011.52 1011.44 1011.36 1011.36 1011.28 1011.20 1011.20 1011.20 1011.28 1011.28 1011.32 1011.40 1011.52 1011.64 1011.80 1011.92 1012.00 1012.16 1012.32 1012.52 1012.64 1012.80 1012.96 1013.08 1013.16 1013.32 1013.48 1013.56 1013.64 1013.80 1013.96 1014.08 1014.20 1014.28 1014.40 1014.56 1014.68 1014.64 1014.68 1014.80 1014.84 1014.88
1016.24 1016.08 1015.92 1015.80 1015.64 1015.52 1015.36 1015.20 1015.04 1014.92 1014.76 1014.60 1014.44 1014.28 1014.12 1013.96 1013.80 1013.56 1013.36 1013.08 1012.92 1012.64 1012.36 1012.08 1011.80 1011.64 1011.48 1011.36 1011.28 1011.20 1011.20 1011.08 1011.08 1011.04 1011.04 1011.04 1011.08 1011.12 1011.20 1011.28 1011.36 1011.48 1011.64 1011.76 1011.92 1012.04 1012.20 1012.36 1012.52 1012.64 1012.80 1012.92 1013.04 1013.16 1013.28 1013.36 1013.56 1013.76 1013.88 1013.92 1014.08 1014.20 1014.36 1014.48 1014.48 1014.52 1014.64 1014.76 1014.80
1016.08 1015.92 1015.80 1015.64 1015.52 1015.44 1015.28 1015.08 1014.92 1014.76 1014.60 1014.44 1014.24 1014.08 1013.92 1013.76 1013.60 1013.36 1013.16 1012.92 1012.72 1012.48 1012.20 1011.92 1011.64 1011.40 1011.28 1011.16 1011.08 1011.04 1010.96 1010.92 1010.92 1010.88 1010.84 1010.80 1010.80 1010.84 1010.92 1011.00 1011.16 1011.28 1011.36 1011.48 1011.64 1011.80 1011.92 1012.08 1012.24 1012.36 1012.48 1012.56 1012.76 1012.88 1012.96 1013.08 1013.36 1013.48 1013.60 1013.68 1013.84 1014.00 1014.12 1014.16 1014.28 1014.40 1014.52 1014.64 1014.68
1015.84 1015.72 1015.64 1015.48 1015.36 1015.20 1015.08 1014.96 1014.80 1014.64 1014.44 1014.28 1014.08 1013.92 1013.76 1013.60 1013.40 1013.20 1012.92 1012.76 1012.52 1012.28 1012.04 1011.80 1011.48 1011.24 1011.08 1011.04 1011.00 1010.96 1010.96 1010.96 1010.92 1010.92 1010.88 1010.76 1010.64 1010.64 1010.72 1010.80 1010.92 1011.00 1011.08 1011.24 1011.36 1011.52 1011.68 1011.84 1012.00 1012.08 1012.20 1012.32 1012.44 1012.52 1012.64 1012.80 1013.08 1013.24 1013.36 1013.48 1013.60 1013.76 1013.84 1013.92 1014.08 1014.20 1014.32 1014.40 1014.52
1015.68 1015.48 1015.36 1015.24 1015.12 1015.00 1014.88 1014.76 1014.60 1014.44 1014.28 1014.12 1013.92 1013.80 1013.60 1013.44 1013.24 1013.04 1012.80 1012.64 1012.36 1012.12 1011.88 1011.64 1011.40 1011.24 1011.16 1011.16 1011.16 1011.16 1011.12 1011.08 1011.08 1011.04 1010.92 1010.80 1010.64 1010.52 1010.52 1010.60 1010.64 1010.76 1010.88 1011.00 1011.16 1011.28 1011.44 1011.64 1011.72 1011.80 1011.92 1012.08 1012.20 1012.28 1012.40 1012.60 1012.84 1013.04 1013.20 1013.36 1013.44 1013.52 1013.64 1013.76 1013.80 1013.96 1014.12 1014.24 1014.36
1015.52 1015.36 1015.20 1015.04 1014.92 1014.80 1014.64 1014.52 1014.36 1014.20 1014.08 1013.92 1013.80 1013.60 1013.44 1013.24 1013.08 1012.88 1012.64 1012.44 1012.20 1011.96 1011.72 1011.48 1011.36 1011.24 1011.32 1011.40 1011.40 1011.36 1011.32 1011.20 1011.12 1011.00 1010.92 1010.84 1010.64 1010.52 1010.40 1010.36 1010.36 1010.52 1010.60 1010.72 1010.88 1011.08 1011.20 1011.40 1011.48 1011.60 1011.64 1011.80 1012.00 1012.12 1012.24 1012.40 1012.60 1012.80 1013.00 1013.08 1013.16 1013.32 1013.44 1013.52 1013.60 1013.76 1013.92 1014.08 1014.20
1015.36 1015.20 1015.08 1014.88 1014.76 1014.60 1014.48 1014.36 1014.20 1014.08 1013.92 1013.76 1013.60 1013.44 1013.24 1013.08 1012.92 1012.68 1012.48 1012.24 1012.04 1011.84 1011.64 1011.40 1011.24 1011.20 1011.32 1011.48 1011.48 1011.36 1011.24 1011.16 1011.08 1010.92 1010.80 1010.80 1010.68 1010.48 1010.28 1010.16 1010.16 1010.20 1010.32 1010.44 1010.64 1010.80 1011.00 1011.20 1011.28 1011.36 1011.40 1011.56 1011.72 1011.88 1012.08 1012.20 1012.36 1012.56 1012.72 1012.84 1012.92 1013.08 1013.20 1013.36 1013.48 1013.60 1013.76 1013.88 1014.04
1015.24 1015.08 1014.88 1014.76 1014.60 1014.48 1014.32 1014.20 1014.04 1013.92 1013.80 1013.56 1013.36 1013.20 1013.08 1012.88 1012.72 1012.52 1012.32 1012.12 1011.92 1011.68 1011.48 1011.32 1011.16 1011.12 1011.20 1011.36 1011.36 1011.28 1011.16 1011.04 1010.92 1010.80 1010.68 1010.64 1010.56 1010.40 1010.20 1010.08 1010.00 1010.00 1010.08 1010.16 1010.36 1010.52 1010.76 1010.92 1011.04 1011.08 1011.16 1011.32 1011.40 1011.56 1011.76 1011.96 1012.20 1012.36 1012.48 1012.60 1012.72 1012.88 1013.00 1013.16 1013.32 1013.44 1013.52 1013.68 1013.84
1015.20 1015.00 1014.80 1014.64 1014.48 1014.32 1014.16 1014.04 1013.88 1013.76 1013.60 1013.40 1013.20 1013.00 1012.84 1012.64 1012.52 1012.36 1012.20 1011.96 1011.72 1011.52 1011.36 1011.20 1011.08 1011.08 1011.08 1011.16 1011.20 1011.16 1011.04 1010.88 1010.72 1010.60 1010.52 1010.44 1010.36 1010.20 1010.08 1009.92 1009.80 1009.80 1009.80 1009.88 1010.04 1010.24 1010.48 1010.64 1010.80 1010.84 1010.92 1011.04 1011.16 1011.32 1011.48 1011.72 1011.92 1012.12 1012.24 1012.36 1012.52 1012.68 1012.80 1012.96 1013.16 1013.28 1013.40 1013.52 1013.64
1015.08 1014.92 1014.72 1014.56 1014.36 1014.20 1014.08 1013.92 1013.72 1013.52 1013.36 1013.20 1013.00 1012.80 1012.60 1012.44 1012.32 1012.12 1011.92 1011.76 1011.60 1011.40 1011.20 1011.08 1010.96 1010.92 1010.88 1010.84 1010.84 1010.84 1010.80 1010.76 1010.64 1010.52 1010.40 1010.28 1010.08 1009.96 1009.88 1009.80 1009.64 1009.60 1009.52 1009.60 1009.72 1009.92 1010.20 1010.40 1010.52 1010.60 1010.68 1010.80 1010.92 1011.08 1011.28 1011.48 1011.68 1011.88 1012.04 1012.12 1012.32 1012.52 1012.68 1012.80 1012.96 1013.12 1013.24 1013.36 1013.48
1015.00 1014.80 1014.64 1014.48 1014.28 1014.12 1013.96 1013.80 1013.60 1013.36 1013.20 1013.00 1012.80 1012.60 1012.40 1012.24 1012.08 1011.92 1011.76 1011.56 1011.44 1011.24 1011.04 1010.88 1010.80 1010.72 1010.64 1010.60 1010.52 1010.52 1010.56 1010.60 1010.56 1010.48 1010.32 1010.16 1009.96 1009.80 1009.68 1009.60 1009.48 1009.44 1009.36 1009.36 1009.44 1009.64 1009.84 1010.08 1010.20 1010.36 1010.48 1010.56 1010.72 1010.88 1011.04 1011.24 1011.48 1011.68 1011.80 1011.96 1012.16 1012.36 1012.52 1012.64 1012.80 1012.92 1013.08 1013.20 1013.36
1014.84 1014.68 1014.52 1014.36 1014.16 1014.00 1013.88 1013.68 1013.48 1013.24 1013.04 1012.80 1012.60 1012.40 1012.20 1012.08 1011.92 1011.76 1011.60 1011.40 1011.24 1011.04 1010.84 1010.72 1010.60 1010.52 1010.48 1010.36 1010.32 1010.24 1010.28 1010.36 1010.36 1010.36 1010.20 1010.08 1009.92 1009.76 1009.52 1009.40 1009.36 1009.32 1009.24 1009.20 1009.20 1009.36 1009.52 1009.68 1009.88 1010.08 1010.20 1010.36 1010.52 1010.64 1010.80 1010.96 1011.20 1011.40 1011.60 1011.76 1011.96 1012.12 1012.28 1012.40 1012.56 1012.72 1012.92 1013.08 1013.20
1014.72 1014.56 1014.40 1014.20 1014.04 1013.88 1013.72 1013.52 1013.32 1013.08 1012.88 1012.64 1012.44 1012.24 1012.08 1011.88 1011.68 1011.52 1011.40 1011.24 1011.08 1010.88 1010.68 1010.52 1010.40 1010.36 1010.24 1010.16 1010.08 1010.04 1010.00 1010.00 1010.08 1010.08 1010.04 1009.92 1009.84 1009.64 1009.44 1009.24 1009.20 1009.16 1009.12 1009.08 1009.08 1009.12 1009.20 1009.36 1009.52 1009.72 1009.92 1010.08 1010.20 1010.32 1010.48 1010.68 1010.88 1011.08 1011.28 1011.48 1011.68 1011.84 1012.00 1012.16 1012.36 1012.52 1012.76 1012.92 1013.08
1014.60 1014.44 1014.24 1014.08 1013.92 1013.76 1013.56 1013.40 1013.16 1012.92 1012.72 1012.52 1012.28 1012.08 1011.88 1011.64 1011.44 1011.28 1011.16 1011.04 1010.84 1010.68 1010.52 1010.36 1010.20 1010.12 1010.04 1009.92 1009.88 1009.80 1009.80 1009.76 1009.72 1009.72 1009.72 1009.64 1009.64 1009.52 1009.36 1009.12 1009.00 1008.92 1008.92 1008.92 1008.92 1008.92 1008.96 1009.08 1009.24 1009.48 1009.64 1009.80 1009.92 1010.08 1010.20 1010.40 1010.64 1010.80 1010.92 1011.12 1011.28 1011.48 1011.68 1011.88 1012.08 1012.32 1012.52 1012.64 1012.84
1014.44 1014.28 1014.12 1013.96 1013.80 1013.60 1013.40 1013.20 1013.00 1012.76 1012.52 1012.32 1012.08 1011.88 1011.68 1011.44 1011.24 1011.08 1010.96 1010.80 1010.64 1010.52 1010.36 1010.20 1010.04 1009.92 1009.80 1009.72 1009.64 1009.64 1009.60 1009.52 1009.44 1009.36 1009.36 1009.36 1009.32 1009.24 1009.16 1009.00 1008.80 1008.72 1008.72 1008.76 1008.80 1008.76 1008.76 1008.80 1008.96 1009.20 1009.40 1009.56 1009.68 1009.84 1010.00 1010.16 1010.36 1010.52 1010.64 1010.80 1010.96 1011.16 1011.36 1011.56 1011.80 1012.00 1012.20 1012.36 1012.60
1014.32 1014.12 1013.96 1013.80 1013.64 1013.44 1013.20 1013.00 1012.80 1012.56 1012.32 1012.08 1011.88 1011.68 1011.48 1011.28 1011.08 1010.92 1010.76 1010.60 1010.40 1010.28 1010.12 1009.92 1009.84 1009.72 1009.64 1009.48 1009.48 1009.40 1009.36 1009.32 1009.24 1009.16 1009.08 1009.08 1009.08 1009.04 1008.96 1008.84 1008.64 1008.52 1008.52 1008.56 1008.60 1008.56 1008.56 1008.60 1008.72 1008.92 1009.12 1009.32 1009.44 1009.60 1009.76 1009.92 1010.08 1010.24 1010.40 1010.52 1010.72 1010.88 1011.08 1011.24 1011.48 1011.72 1011.92 1012.12 1012.32
1014.12 1013.96 1013.80 1013.64 1013.48 1013.24 1013.00 1012.80 1012.56 1012.36 1012.12 1011.92 1011.64 1011.48 1011.28 1011.08 1010.92 1010.72 1010.52 1010.36 1010.20 1010.08 1009.92 1009.72 1009.60 1009.48 1009.36 1009.28 1009.20 1009.20 1009.16 1009.08 1009.04 1008.96 1008.88 1008.84 1008.84 1008.84 1008.80 1008.64 1008.44 1008.32 1008.28 1008.32 1008.36 1008.36 1008.40 1008.40 1008.52 1008.64 1008.88 1009.08 1009.20 1009.36 1009.52 1009.68 1009.84 1010.00 1010.16 1010.32 1010.48 1010.64 1010.84 1011.00 1011.20 1011.44 1011.64 1011.84 1012.04
1013.92 1013.80 1013.60 1013.40 1013.20 1013.04 1012.80 1012.56 1012.36 1012.08 1011.88 1011.64 1011.44 1011.20 1011.04 1010.88 1010.68 1010.52 1010.32 1010.12 1009.92 1009.80 1009.64 1009.48 1009.36 1009.20 1009.12 1009.04 1008.96 1008.92 1008.88 1008.84 1008.80 1008.72 1008.64 1008.60 1008.56 1008.52 1008.52 1008.40 1008.36 1008.24 1008.16 1008.08 1008.12 1008.16 1008.20 1008.20 1008.28 1008.40 1008.64 1008.84 1009.04 1009.20 1009.36 1009.48 1009.64 1009.84 1010.00 1010.16 1010.32 1010.52 1010.64 1010.84 1011.04 1011.20 1011.40 1011.60 1011.80
1013.72 1013.56 1013.36 1013.20 1013.00 1012.80 1012.52 1012.32 1012.08 1011.84 1011.64 1011.40 1011.20 1011.04 1010.84 1010.64 1010.44 1010.28 1010.08 1009.88 1009.64 1009.52 1009.40 1009.28 1009.12 1008.96 1008.88 1008.80 1008.72 1008.64 1008.60 1008.56 1008.52 1008.48 1008.36 1008.32 1008.24 1008.20 1008.16 1008.20 1008.20 1008.16 1008.04 1007.92 1007.92 1007.92 1008.00 1008.08 1008.08 1008.20 1008.36 1008.56 1008.80 1008.96 1009.16 1009.32 1009.48 1009.68 1009.84 1010.00 1010.20 1010.36 1010.52 1010.68 1010.88 1011.04 1011.20 1011.36 1011.56
1013.48 1013.32 1013.08 1012.92 1012.76 1012.52 1012.32 1012.08 1011.84 1011.64 1011.40 1011.20 1011.04 1010.80 1010.60 1010.36 1010.20 1010.04 1009.80 1009.60 1009.44 1009.28 1009.16 1009.04 1008.92 1008.76 1008.64 1008.52 1008.44 1008.36 1008.28 1008.28 1008.28 1008.20 1008.12 1008.04 1007.92 1007.80 1007.80 1007.88 1007.92 1007.92 1007.88 1007.80 1007.72 1007.72 1007.80 1007.88 1007.92 1008.00 1008.08 1008.28 1008.52 1008.76 1008.92 1009.08 1009.32 1009.48 1009.68 1009.88 1010.04 1010.20 1010.36 1010.56 1010.72 1010.92 1011.08 1011.24 1011.44
1013.24 1013.04 1012.84 1012.68 1012.48 1012.28 1012.08 1011.84 1011.64 1011.40 1011.20 1011.00 1010.80 1010.56 1010.36 1010.16 1009.96 1009.76 1009.56 1009.36 1009.20 1009.08 1008.92 1008.76 1008.64 1008.52 1008.36 1008.24 1008.16 1008.08 1008.00 1007.96 1007.96 1007.92 1007.84 1007.76 1007.60 1007.48 1007.40 1007.48 1007.64 1007.68 1007.64 1007.60 1007.48 1007.48 1007.56 1007.64 1007.76 1007.80 1007.92 1008.08 1008.28 1008.48 1008.68 1008.84 1009.08 1009.28 1009.48 1009.68 1009.84 1010.04 1010.24 1010.44 1010.60 1010.76 1010.92 1011.08 1011.24
1012.96 1012.80 1012.60 1012.40 1012.20 1012.00 1011.80 1011.60 1011.36 1011.16 1010.92 1010.76 1010.52 1010.32 1010.12 1009.92 1009.72 1009.52 1009.32 1009.12 1008.96 1008.80 1008.64 1008.52 1008.36 1008.20 1008.08 1007.92 1007.88 1007.80 1007.76 1007.72 1007.64 1007.60 1007.56 1007.48 1007.36 1007.20 1007.12 1007.20 1007.36 1007.44 1007.36 1007.28 1007.24 1007.24 1007.32 1007.40 1007.52 1007.64 1007.76 1007.88 1008.08 1008.24 1008.44 1008.64 1008.84 1009.08 1009.28 1009.48 1009.68 1009.92 1010.08 1010.28 1010.40 1010.60 1010.80 1010.92 1011.12
1012.68 1012.52 1012.36 1012.16 1011.96 1011.76 1011.56 1011.36 1011.16 1010.92 1010.76 1010.52 1010.32 1010.12 1009.92 1009.68 1009.48 1009.28 1009.08 1008.92 1008.72 1008.56 1008.36 1008.20 1008.04 1007.92 1007.80 1007.64 1007.64 1007.56 1007.52 1007.48 1007.40 1007.32 1007.24 1007.16 1007.12 1007.00 1006.92 1007.00 1007.12 1007.16 1007.08 1007.00 1006.92 1006.92 1007.04 1007.16 1007.32 1007.48 1007.60 1007.72 1007.88 1008.08 1008.24 1008.44 1008.64 1008.84 1009.08 1009.28 1009.48 1009.68 1009.92 1010.12 1010.28 1010.44 1010.64 1010.80 1011.00
1012.48 1012.28 1012.08 1011.92 1011.76 1011.56 1011.36 1011.16 1010.92 1010.76 1010.52 1010.28 1010.08 1009.88 1009.68 1009.48 1009.28 1009.08 1008.88 1008.64 1008.48 1008.32 1008.12 1007.92 1007.80 1007.64 1007.52 1007.48 1007.36 1007.36 1007.32 1007.28 1007.20 1007.12 1007.04 1006.96 1006.92 1006.84 1006.80 1006.80 1006.88 1006.84 1006.80 1006.64 1006.56 1006.56 1006.64 1006.80 1007.00 1007.20 1007.40 1007.56 1007.72 1007.88 1008.08 1008.24 1008.40 1008.64 1008.84 1009.08 1009.24 1009.48 1009.76 1009.96 1010.16 1010.32 1010.48 1010.64 1010.80
1012.20 1012.08 1011.92 1011.72 1011.52 1011.32 1011.12 1010.92 1010.72 1010.52 1010.24 1010.08 1009.84 1009.64 1009.48 1009.24 1009.08 1008.84 1008.64 1008.44 1008.20 1008.04 1007.88 1007.72 1007.56 1007.44 1007.32 1007.24 1007.20 1007.16 1007.12 1007.08 1007.00 1006.92 1006.88 1006.80 1006.76 1006.72 1006.68 1006.68 1006.64 1006.56 1006.48 1006.36 1006.24 1006.24 1006.32 1006.48 1006.68 1006.92 1007.16 1007.36 1007.52 1007.72 1007.92 1008.08 1008.20 1008.40 1008.64 1008.84 1009.00 1009.24 1009.52 1009.80 1009.96 1010.16 1010.32 1010.48 1010.64
1012.00 1011.80 1011.64 1011.44 1011.28 1011.08 1010.88 1010.64 1010.48 1010.24 1010.04 1009.80 1009.64 1009.44 1009.24 1009.04 1008.84 1008.64 1008.40 1008.20 1008.00 1007.80 1007.64 1007.52 1007.36 1007.28 1007.20 1007.16 1007.08 1007.04 1006.96 1006.92 1006.80 1006.76 1006.72 1006.64 1006.56 1006.52 1006.40 1006.36 1006.28 1006.24 1006.20 1006.08 1006.00 1005.96 1006.04 1006.20 1006.44 1006.64 1006.92 1007.12 1007.32 1007.48 1007.64 1007.80 1008.00 1008.20 1008.40 1008.64 1008.80 1009.04 1009.24 1009.48 1009.68 1009.92 1010.12 1010.32 1010.48
1011.80 1011.60 1011.40 1011.20 1011.04 1010.84 1010.64 1010.40 1010.20 1010.04 1009.84 1009.64 1009.48 1009.28 1009.04 1008.80 1008.60 1008.40 1008.20 1008.04 1007.84 1007.64 1007.52 1007.44 1007.36 1007.24 1007.20 1007.16 1007.12 1007.04 1006.92 1006.80 1006.68 1006.60 1006.52 1006.44 1006.36 1006.32 1006.20 1006.08 1006.04 1005.96 1005.92 1005.88 1005.80 1005.76 1005.80 1005.92 1006.12 1006.36 1006.64 1006.88 1007.08 1007.28 1007.44 1007.60 1007.80 1007.92 1008.16 1008.40 1008.64 1008.80 1009.00 1009.20 1009.40 1009.64 1009.84 1010.08 1010.32
1011.56 1011.36 1011.20 1010.96 1010.76 1010.56 1010.36 1010.20 1010.04 1009.84 1009.68 1009.48 1009.28 1009.08 1008.80 1008.64 1008.44 1008.28 1008.08 1007.92 1007.76 1007.60 1007.48 1007.40 1007.32 1007.28 1007.28 1007.28 1007.20 1007.08 1006.92 1006.80 1006.60 1006.44 1006.36 1006.24 1006.16 1006.08 1006.04 1005.92 1005.84 1005.80 1005.76 1005.68 1005.60 1005.56 1005.60 1005.68 1005.84 1006.04 1006.28 1006.56 1006.80 1007.04 1007.20 1007.36 1007.56 1007.72 1007.92 1008.16 1008.36 1008.60 1008.80 1008.96 1009.16 1009.40 1009.64 1009.88 1010.08
1011.28 1011.08 1010.88 1010.64 1010.48 1010.32 1010.16 1010.00 1009.84 1009.68 1009.52 1009.32 1009.08 1008.88 1008.64 1008.44 1008.32 1008.20 1008.08 1007.92 1007.72 1007.56 1007.44 1007.36 1007.28 1007.24 1007.20 1007.12 1007.08 1006.92 1006.76 1006.56 1006.44 1006.28 1006.16 1006.04 1005.92 1005.88 1005.80 1005.72 1005.64 1005.60 1005.56 1005.48 1005.36 1005.36 1005.36 1005.44 1005.56 1005.68 1005.92 1006.20 1006.48 1006.76 1006.96 1007.16 1007.36 1007.48 1007.68 1007.88 1008.12 1008.36 1008.56 1008.76 1008.92 1009.20 1009.44 1009.64 1009.92
1011.00 1010.80 1010.64 1010.44 1010.28 1010.12 1009.96 1009.80 1009.68 1009.52 1009.36 1009.12 1008.88 1008.64 1008.48 1008.32 1008.20 1008.08 1007.96 1007.84 1007.68 1007.52 1007.36 1007.24 1007.20 1007.08 1007.00 1006.92 1006.80 1006.68 1006.52 1006.36 1006.20 1006.08 1005.96 1005.88 1005.76 1005.68 1005.60 1005.52 1005.48 1005.44 1005.36 1005.24 1005.20 1005.12 1005.08 1005.16 1005.28 1005.44 1005.60 1005.84 1006.16 1006.48 1006.68 1006.92 1007.08 1007.28 1007.44 1007.64 1007.88 1008.08 1008.32 1008.56 1008.76 1009.00 1009.20 1009.44 1009.68
1010.72 1010.52 1010.36 1010.24 1010.08 1009.92 1009.80 1009.64 1009.48 1009.32 1009.08 1008.92 1008.64 1008.48 1008.36 1008.20 1008.08 1007.96 1007.88 1007.76 1007.64 1007.48 1007.36 1007.20 1007.08 1006.92 1006.76 1006.64 1006.52 1006.36 1006.20 1006.08 1005.96 1005.84 1005.68 1005.64 1005.52 1005.48 1005.36 1005.36 1005.24 1005.20 1005.12 1005.04 1004.92 1004.84 1004.84 1004.92 1005.04 1005.16 1005.28 1005.48 1005.80 1006.12 1006.36 1006.64 1006.84 1007.00 1007.20 1007.36 1007.64 1007.84 1008.08 1008.32 1008.52 1008.76 1008.96 1009.20 1009.44
1010.48 1010.36 1010.20 1010.08 1009.88 1009.72 1009.56 1009.36 1009.20 1009.04 1008.80 1008.64 1008.52 1008.36 1008.20 1008.08 1007.92 1007.84 1007.76 1007.64 1007.52 1007.44 1007.32 1007.16 1006.96 1006.80 1006.60 1006.44 1006.28 1006.12 1005.96 1005.84 1005.68 1005.52 1005.40 1005.28 1005.24 1005.20 1005.08 1005.04 1004.96 1004.92 1004.84 1004.76 1004.64 1004.64 1004.64 1004.68 1004.80 1004.92 1005.04 1005.20 1005.52 1005.80 1006.08 1006.32 1006.60 1006.80 1007.04 1007.20 1007.44 1007.64 1007.88 1008.08 1008.32 1008.52 1008.76 1008.96 1009.20
1010.24 1010.08 1009.96 1009.80 1009.64 1009.44 1009.28 1009.08 1008.92 1008.80 1008.64 1008.48 1008.36 1008.24 1008.12 1008.00 1007.88 1007.76 1007.64 1007.56 1007.44 1007.32 1007.16 1006.96 1006.80 1006.60 1006.44 1006.28 1006.08 1005.92 1005.80 1005.64 1005.48 1005.32 1005.16 1005.04 1004.92 1004.84 1004.80 1004.72 1004.64 1004.60 1004.52 1004.52 1004.40 1004.36 1004.36 1004.44 1004.56 1004.68 1004.80 1004.92 1005.28 1005.56 1005.80 1006.08 1006.36 1006.64 1006.88 1007.08 1007.32 1007.52 1007.72 1007.92 1008.08 1008.36 1008.56 1008.80 1008.96
1010.00 1009.84 1009.68 1009.48 1009.36 1009.16 1009.00 1008.84 1008.68 1008.56 1008.44 1008.32 1008.20 1008.08 1008.00 1007.92 1007.84 1007.72 1007.60 1007.48 1007.36 1007.20 1006.96 1006.76 1006.56 1006.36 1006.20 1006.08 1005.92 1005.80 1005.68 1005.52 1005.36 1005.12 1004.96 1004.80 1004.64 1004.52 1004.44 1004.36 1004.32 1004.28 1004.24 1004.20 1004.16 1004.12 1004.16 1004.20 1004.32 1004.44 1004.52 1004.72 1005.04 1005.36 1005.60 1005.92 1006.16 1006.44 1006.72 1006.92 1007.20 1007.40 1007.64 1007.80 1008.04 1008.20 1008.40 1008.64 1008.80
1009.68 1009.56 1009.40 1009.24 1009.08 1008.92 1008.76 1008.64 1008.48 1008.36 1008.20 1008.12 1008.00 1007.92 1007.84 1007.80 1007.68 1007.60 1007.48 1007.36 1007.20 1007.00 1006.76 1006.52 1006.32 1006.12 1005.92 1005.80 1005.64 1005.60 1005.48 1005.36 1005.20 1004.96 1004.80 1004.64 1004.52 1004.36 1004.20 1004.08 1004.04 1004.00 1004.00 1004.00 1003.92 1003.92 1003.92 1004.00 1004.08 1004.20 1004.32 1004.52 1004.80 1005.08 1005.40 1005.68 1005.96 1006.24 1006.52 1006.80 1007.08 1007.28 1007.48 1007.72 1007.92 1008.16 1008.36 1008.52 1008.72
1009.36 1009.24 1009.16 1009.00 1008.84 1008.68 1008.52 1008.40 1008.28 1008.12 1008.00 1007.88 1007.80 1007.72 1007.64 1007.56 1007.48 1007.36 1007.24 1007.20 1007.04 1006.80 1006.52 1006.28 1006.08 1005.88 1005.68 1005.52 1005.44 1005.36 1005.24 1005.12 1004.96 1004.80 1004.64 1004.48 1004.36 1004.20 1004.08 1003.92 1003.80 1003.80 1003.80 1003.80 1003.76 1003.72 1003.72 1003.80 1003.88 1003.96 1004.08 1004.24 1004.52 1004.84 1005.20 1005.52 1005.80 1006.12 1006.40 1006.68 1006.92 1007.20 1007.40 1007.64 1007.80 1008.08 1008.28 1008.44 1008.60
1009.12 1009.00 1008.88 1008.76 1008.64 1008.52 1008.36 1008.20 1008.08 1007.92 1007.76 1007.64 1007.56 1007.48 1007.44 1007.36 1007.24 1007.16 1007.04 1006.92 1006.80 1006.52 1006.20 1006.00 1005.80 1005.64 1005.48 1005.36 1005.24 1005.08 1004.96 1004.84 1004.72 1004.60 1004.44 1004.28 1004.20 1004.08 1003.96 1003.80 1003.68 1003.64 1003.64 1003.64 1003.56 1003.52 1003.52 1003.56 1003.64 1003.72 1003.80 1003.96 1004.28 1004.64 1005.04 1005.32 1005.64 1005.96 1006.28 1006.56 1006.88 1007.12 1007.36 1007.56 1007.76 1007.96 1008.20 1008.32 1008.44
1008.84 1008.76 1008.64 1008.56 1008.40 1008.28 1008.20 1008.04 1007.92 1007.72 1007.56 1007.40 1007.32 1007.20 1007.16 1007.08 1007.00 1006.88 1006.76 1006.64 1006.52 1006.28 1006.04 1005.80 1005.64 1005.48 1005.36 1005.20 1005.08 1004.88 1004.72 1004.56 1004.48 1004.36 1004.24 1004.08 1004.00 1003.92 1003.80 1003.72 1003.56 1003.48 1003.48 1003.48 1003.40 1003.36 1003.36 1003.36 1003.40 1003.48 1003.52 1003.64 1004.00 1004.44 1004.88 1005.12 1005.48 1005.80 1006.12 1006.44 1006.80 1007.08 1007.36 1007.48 1007.68 1007.92 1008.12 1008.24 1008.28
1008.64 1008.60 1008.52 1008.36 1008.20 1008.08 1007.92 1007.80 1007.64 1007.48 1007.36 1007.24 1007.12 1007.00 1006.88 1006.80 1006.68 1006.56 1006.44 1006.36 1006.24 1006.08 1005.84 1005.64 1005.44 1005.32 1005.20 1005.08 1004.92 1004.72 1004.52 1004.36 1004.28 1004.20 1004.08 1003.92 1003.80 1003.68 1003.56 1003.48 1003.36 1003.28 1003.24 1003.24 1003.20 1003.20 1003.20 1003.16 1003.20 1003.20 1003.24 1003.40 1003.80 1004.28 1004.64 1004.92 1005.24 1005.64 1005.96 1006.36 1006.64 1007.00 1007.28 1007.48 1007.64 1007.80 1008.08 1008.20 1008.20
1008.52 1008.48 1008.36 1008.16 1008.04 1007.92 1007.76 1007.56 1007.36 1007.24 1007.12 1007.04 1006.92 1006.80 1006.68 1006.56 1006.40 1006.28 1006.20 1006.08 1005.96 1005.80 1005.64 1005.44 1005.28 1005.16 1005.08 1004.92 1004.80 1004.60 1004.36 1004.20 1004.08 1004.00 1003.92 1003.76 1003.60 1003.44 1003.32 1003.20 1003.12 1003.08 1003.04 1003.04 1003.04 1003.00 1002.96 1002.96 1003.00 1003.00 1003.04 1003.28 1003.76 1004.20 1004.48 1004.68 1005.04 1005.40 1005.80 1006.16 1006.52 1006.84 1007.12 1007.36 1007.56 1007.76 1007.96 1008.12 1008.20
Wind_Speed
8 7 7 7 7 6 6 6 7 7 7 6 6 7 7 7 8 8 8 7 8 8 8 8 8 9 9 11 12 13 13 14 14 15 15 15 15 15 15 15 14 14 13 13 13 12 11 11 11 9 8 8 8 8 8 8 8 9 9 9 8 8 8 9 10 10 10 10 8
9 9 8 8 8 7 6 7 7 7 7 6 7 7 7 7 7 8 8 8 8 8 8 8 8 9 10 12 12 13 13 14 14 15 15 15 15 15 15 14 14 14 14 14 13 12 10 11 10 9 8 7 8 8 9 8 9 9 10 11 9 7 7 8 9 10 10 10 8
9 9 8 8 8 7 7 7 8 8 8 7 7 7 7 7 7 7 8 8 9 9 9 8 8 9 11 13 12 12 12 13 14 14 14 14 14 15 14 14 14 14 14 14 13 12 11 11 10 10 9 8 9 9 9 9 9 9 10 11 8 7 6 7 8 8 8 7 8
10 9 9 9 9 9 9 8 9 9 9 8 8 7 7 7 7 7 8 8 9 9 9 9 9 10 10 12 12 12 12 13 13 13 13 13 14 14 14 14 14 14 14 14 13 13 12 12 10 10 10 10 10 10 9 8 9 9 9 9 7 7 7 8 7 6 6 7 7
10 10 9 9 10 9 9 8 9 10 9 8 8 8 8 7 7 7 8 8 9 10 11 12 11 10 10 10 11 11 11 12 12 12 12 13 13 14 14 14 14 14 14 13 14 14 13 13 10 9 9 10 9 8 9 9 9 9 8 7 7 7 7 7 6 6 6 6 6
11 11 11 10 10 10 9 8 10 10 9 8 9 10 9 9 8 9 9 9 10 11 12 12 11 9 8 8 8 8 9 10 11 12 13 13 13 13 13 14 14 14 13 13 14 14 14 13 10 9 9 8 8 8 9 10 10 9 8 7 7 7 7 7 6 6 6 7 7
12 12 12 12 12 11 10 10 10 10 10 9 11 11 12 11 11 11 12 11 10 10 10 9 8 7 7 7 8 9 9 10 11 12 13 13 13 13 13 13 14 14 14 13 13 13 13 12 10 9 9 8 7 8 9 10 9 9 9 8 7 7 7 8 6 6 7 9 9
12 12 13 13 13 12 12 11 11 10 10 10 11 13 13 13 13 13 13 11 10 9 8 7 7 7 7 8 9 10 11 12 12 12 13 13 14 14 13 13 13 14 14 14 13 13 12 11 10 10 9 8 7 7 8 10 10 10 10 10 8 7 6 6 6 6 8 10 10
12 13 13 13 13 13 12 12 12 11 11 12 13 13 14 14 14 13 12 10 9 9 8 7 7 7 8 10 11 11 11 11 13 13 13 13 14 14 14 13 14 14 14 13 13 13 13 11 10 10 9 8 8 8 9 11 11 12 11 11 9 8 7 7 7 8 8 9 10
12 13 13 13 13 13 13 12 12 12 13 13 14 14 14 14 13 12 10 9 9 8 8 7 7 7 8 10 11 11 11 11 12 13 14 14 15 15 14 13 14 14 14 13 13 13 13 11 11 11 11 9 10 10 10 11 12 12 12 9 9 9 9 8 8 9 9 9 10
13 13 13 12 13 13 13 12 12 12 12 13 14 14 14 13 12 11 9 9 9 9 9 7 7 7 8 8 9 10 10 10 10 12 13 14 15 15 14 14 14 14 14 14 13 12 11 11 12 12 13 11 11 11 11 12 12 13 12 10 10 10 11 10 9 9 9 10 10
13 13 13 13 13 13 13 12 12 12 12 13 13 13 13 12 11 10 10 9 9 9 8 8 8 7 7 7 8 9 10 10 10 11 12 14 15 15 14 14 14 14 14 14 13 11 11 11 12 13 14 13 11 10 11 12 13 13 13 12 11 11 11 12 11 10 9 9 10
13 13 13 13 13 13 13 12 11 11 12 12 12 12 11 11 11 10 9 9 10 9 8 7 7 7 7 7 7 8 9 10 10 11 12 13 15 15 14 14 14 14 14 14 13 12 11 12 14 14 15 14 12 11 11 13 13 13 14 13 13 12 12 13 12 10 9 9 10
13 13 13 13 13 13 12 12 11 11 11 12 11 11 11 11 11 10 9 9 10 9 9 8 7 6 6 7 8 8 9 10 11 12 12 13 14 15 14 14 14 14 14 13 13 13 13 13 14 15 15 15 14 13 13 13 13 14 14 15 15 14 14 13 13 12 11 11 11
13 13 13 13 13 13 12 12 11 11 11 11 11 11 11 11 11 10 10 10 10 9 9 8 7 7 7 8 8 9 10 10 11 12 13 14 15 15 15 15 14 14 14 13 13 13 14 14 14 15 15 16 15 15 14 13 14 14 15 15 16 15 15 14 13 13 12 13 12
13 13 13 13 13 13 13 12 11 11 11 12 12 12 12 11 11 10 10 11 10 9 8 9 8 7 7 7 8 8 9 10 11 12 13 14 15 15 16 16 15 14 14 14 13 13 14 14 14 15 15 16 15 15 14 14 14 14 15 16 16 16 15 15 14 14 14 14 13
13 13 13 14 14 14 14 13 12 12 12 13 14 14 13 12 11 10 11 11 10 9 9 10 9 8 7 6 6 7 7 9 10 11 12 13 14 15 15 16 15 15 14 14 14 14 14 14 14 15 15 16 15 15 15 14 14 14 15 15 15 15 15 15 15 14 14 14 15
13 13 14 14 14 15 15 15 14 14 14 15 15 14 13 12 12 12 12 12 11 11 11 11 10 9 8 8 7 6 6 7 9 10 11 12 13 14 14 15 15 15 14 14 14 14 14 15 15 15 15 15 14 14 14 14 14 14 15 15 15 15 15 15 14 14 14 15 15
14 14 14 14 15 15 16 16 16 15 15 15 15 14 14 14 14 14 13 13 13 13 13 12 11 10 9 9 8 7 6 7 9 10 11 11 12 13 13 14 15 15 14 14 14 14 15 15 15 15 14 14 14 14 14 14 13 13 14 14 14 14 14 14 14 14 13 14 14
14 14 14 14 15 15 16 16 16 16 16 15 15 15 15 15 15 15 15 15 15 14 13 13 12 11 10 10 9 8 7 7 8 10 11 11 11 12 12 13 14 15 14 14 14 14 14 15 15 15 15 15 14 14 14 14 13 13 13 12 13 13 13 13 13 13 13 13 13
14 14 14 15 15 15 15 16 16 16 16 16 16 16 16 16 16 16 16 16 15 14 14 13 13 12 11 11 10 9 8 7 8 9 10 11 11 11 12 13 14 14 14 14 14 14 14 14 15 15 15 15 15 15 15 14 13 13 13 12 12 12 12 12 12 13 13 13 13
14 14 14 14 15 15 15 16 16 16 16 16 16 16 17 17 16 16 16 15 14 14 14 13 13 13 12 11 11 10 9 7 8 9 9 10 10 11 11 12 13 15 15 15 15 15 15 15 15 15 15 15 15 15 15 14 14 13 13 12 12 12 12 12 12 12 12 12 12
14 14 14 14 15 15 16 16 16 16 16 16 16 17 17 17 16 16 16 15 14 14 13 13 13 12 12 11 11 10 9 9 9 9 10 10 10 11 11 11 13 15 16 15 15 14 14 14 15 15 14 14 15 15 15 15 14 13 13 13 13 13 12 12 12 12 12 12 11
14 14 13 13 14 15 16 16 16 16 16 16 16 16 16 16 16 16 15 15 14 14 13 12 12 11 11 11 10 10 10 10 10 11 11 11 10 10 11 11 13 14 15 14 14 14 14 12 12 12 13 13 13 14 14 14 14 13 13 13 13 13 12 12 12 11 11 11 11
14 14 14 14 15 15 16 16 16 16 16 16 16 16 16 16 16 15 15 15 15 15 14 14 13 11 10 10 9 9 9 10 10 11 11 11 11 10 10 10 11 12 13 14 17 19 19 16 13 11 11 11 12 13 13 14 14 13 13 13 13 13 12 12 12 12 11 11 11
14 14 14 15 15 16 16 16 16 16 16 16 15 15 15 15 15 15 15 15 15 15 14 14 13 12 10 9 9 9 9 9 9 10 10 11 11 11 10 10 10 10 11 14 20 22 23 21 18 15 12 11 11 12 13 13 14 14 14 14 13 13 13 13 12 12 12 11 11
14 14 14 15 15 16 16 16 15 15 15 15 15 15 15 15 15 15 15 15 15 14 13 12 11 10 9 8 9 9 9 8 9 9 10 10 11 11 11 10 9 9 11 16 20 23 24 24 23 20 16 12 12 12 12 12 13 14 14 13 13 13 14 14 14 13 12 11 11
15 15 15 16 16 16 16 16 15 15 15 15 15 15 16 16 15 15 15 14 13 12 10 8 8 7 6 6 8 9 10 10 9 9 9 10 10 11 11 10 9 10 13 18 21 22 23 24 25 24 21 16 12 12 12 12 12 13 13 13 13 13 14 14 13 13 13 12 11
15 16 16 17 17 17 17 16 16 16 15 16 16 16 15 15 14 13 13 12 11 9 7 5 5 5 5 7 9 10 11 11 10 10 9 9 10 10 11 11 11 12 15 20 21 22 23 24 25 26 24 21 14 11 11 11 11 11 11 11 12 12 13 13 12 12 12 12 11
16 17 18 18 18 18 17 17 17 16 16 15 16 15 14 12 12 12 11 11 9 7 6 5 6 7 8 10 11 11 12 12 11 10 10 10 10 11 11 11 11 12 16 20 22 23 23 24 25 26 26 25 17 12 10 10 10 11 11 11 12 13 13 13 13 12 11 11 11
18 18 18 18 18 18 17 17 17 17 16 16 16 14 12 11 11 11 10 9 8 8 7 7 8 10 11 12 12 13 13 13 13 12 11 11 11 11 12 12 12 13 16 20 22 23 23 24 25 26 27 27 19 14 11 11 11 11 11 12 13 13 13 13 12 12 12 12 11
18 18 18 18 17 17 17 17 17 17 17 17 16 14 12 11 11 11 10 9 9 10 10 10 11 11 12 12 13 13 14 15 14 13 12 12 12 12 12 12 12 13 16 20 22 23 24 24 25 26 27 27 20 16 13 13 12 12 12 12 13 14 13 12 11 12 13 13 13
18 17 17 17 17 17 17 18 17 18 18 17 16 14 14 13 13 13 13 12 11 11 12 12 12 12 12 13 13 14 15 16 15 15 15 14 13 12 12 12 11 13 16 20 23 23 24 24 25 26 27 27 20 16 14 13 12 11 11 12 12 13 13 13 12 12 13 14 13
16 16 17 17 17 17 17 17 17 17 17 16 16 15 15 15 16 15 15 14 13 12 12 12 12 12 12 12 13 14 15 16 16 15 14 13 13 12 12 11 9 11 16 20 23 23 24 24 25 26 27 26 19 15 14 14 12 11 11 11 11 11 12 12 12 12 13 14 13
16 16 17 17 17 17 17 17 17 16 16 15 16 16 16 16 16 15 15 15 16 15 14 13 12 12 12 12 12 13 15 17 16 16 15 13 13 12 12 12 11 13 17 20 22 23 24 24 25 26 26 24 16 12 12 14 12 12 12 11 11 11 11 11 11 11 12 13 12
16 17 18 18 18 18 17 17 16 16 16 16 16 16 15 14 13 13 14 15 16 17 16 15 13 12 12 12 12 12 14 15 16 16 15 13 12 12 12 12 12 14 17 21 22 23 24 24 25 26 25 21 13 10 10 12 11 11 12 11 11 11 11 11 10 10 11 11 11
17 17 18 19 19 18 18 17 17 17 17 17 17 16 15 14 13 12 13 14 15 16 16 15 13 13 12 12 12 12 13 14 15 15 14 14 13 13 13 13 13 14 17 20 22 23 24 24 25 26 24 18 11 9 9 10 9 10 10 11 10 10 11 10 10 10 10 11 11
17 17 17 18 18 18 18 18 18 18 18 18 17 16 15 13 12 12 13 14 14 15 15 14 13 12 12 12 12 13 14 14 14 14 14 14 13 13 13 13 13 13 15 18 21 22 23 24 26 26 24 17 11 9 9 9 9 9 9 9 9 9 9 9 8 9 10 12 14
17 17 16 16 17 18 18 19 19 19 18 18 17 17 15 14 12 13 14 14 14 14 14 13 13 13 13 13 13 14 14 14 13 14 14 14 14 14 14 14 13 13 14 17 20 22 23 24 26 27 25 18 12 8 8 9 10 10 10 9 8 8 9 8 8 8 9 12 17
16 16 15 15 16 17 18 19 19 18 18 17 18 17 17 16 15 15 15 15 14 14 14 14 14 14 13 14 14 14 14 13 12 13 13 14 15 16 17 16 14 13 14 16 19 21 23 25 26 27 25 17 11 8 9 10 10 10 10 9 8 8 8 8 7 7 8 10 15
14 14 15 16 16 17 18 19 19 19 18 17 18 17 17 16 16 16 15 13 14 13 13 12 13 14 14 14 14 14 14 14 13 13 14 15 16 17 17 16 14 13 13 14 18 21 23 25 26 27 25 16 9 8 9 10 11 11 11 10 9 9 8 8 7 7 7 8 10
Wind_Direction
306 306 305 306 308 309 310 309 309 307 306 305 305 304 305 305 304 304 303 305 304 301 294 282 267 257 249 241 234 230 227 225 224 223 221 220 219 219 218 218 218 217 217 217 215 214 213 212 214 216 217 215 214 214 214 212 210 210 211 210 212 211 208 206 207 206 205 205 204
303 302 302 303 305 307 308 309 308 307 306 304 302 302 302 303 302 302 303 303 304 302 298 289 274 261 252 245 238 232 229 227 225 224 223 222 221 220 219 218 218 217 216 216 215 214 212 211 212 215 218 218 215 214 214 212 208 208 211 212 211 208 205 208 209 206 204 204 203
300 300 301 302 304 306 307 308 308 307 305 303 302 301 301 301 301 301 301 302 304 304 303 297 282 266 254 247 241 235 231 229 226 224 224 223 222 220 219 219 218 217 217 216 215 214 212 210 211 215 217 218 215 214 214 212 206 207 210 212 209 206 205 210 209 205 202 204 200
298 299 299 299 300 301 302 303 305 305 305 304 303 302 301 301 300 300 300 301 305 309 310 306 292 275 258 248 243 239 235 233 230 228 226 225 223 222 220 219 219 218 217 216 215 215 213 210 212 215 218 218 215 214 213 210 205 206 209 210 208 206 207 211 206 201 199 204 201
300 299 298 297 296 296 297 298 301 302 303 304 304 303 302 302 301 302 302 305 308 313 315 314 303 287 269 256 251 248 246 244 242 239 235 231 227 223 221 219 219 218 218 216 215 215 214 211 213 216 219 219 216 214 212 207 204 206 209 210 208 207 208 209 204 200 199 202 201
302 301 299 298 296 295 295 297 298 299 301 303 303 302 302 302 302 303 303 304 307 311 315 318 312 302 291 284 280 274 268 261 255 251 246 240 233 227 223 220 220 219 218 217 216 215 214 211 215 217 217 217 217 216 212 205 203 205 207 209 209 208 208 209 204 199 197 199 199
302 302 301 300 300 299 299 298 298 299 301 302 301 301 300 300 300 300 300 302 305 309 314 319 321 319 314 309 299 289 279 270 262 255 250 247 241 233 226 222 221 220 219 217 215 214 213 211 215 218 218 216 216 214 210 206 203 203 205 208 208 206 205 208 203 197 195 197 196
302 301 301 301 301 301 300 299 299 300 301 301 301 300 299 298 298 298 299 301 303 305 308 314 318 316 308 298 289 281 275 269 264 258 252 250 246 239 232 225 222 220 219 217 215 213 212 212 216 218 218 215 213 209 206 203 202 202 204 207 207 205 203 203 201 197 196 195 195
303 302 301 301 301 301 300 299 299 299 299 299 299 298 298 297 297 297 298 298 298 298 300 304 306 302 294 286 282 278 273 268 263 259 254 249 246 241 236 229 224 221 219 217 214 212 211 211 216 218 217 214 211 206 202 199 201 202 204 205 205 204 202 201 199 198 196 195 195
302 301 301 301 300 300 299 300 299 299 298 298 297 297 296 296 295 294 293 291 291 292 292 292 292 289 284 280 280 279 276 270 264 259 255 250 245 240 236 232 226 222 219 216 214 211 210 211 215 217 217 214 211 206 201 198 199 201 203 204 203 203 202 200 199 198 197 196 196
299 299 299 299 299 299 299 300 299 299 298 297 297 296 296 295 292 289 287 285 287 286 285 283 282 279 277 275 277 279 279 276 269 263 258 252 246 241 236 232 228 224 219 215 212 210 209 210 214 217 217 214 211 206 201 197 198 200 203 204 202 201 201 200 198 198 198 198 196
298 298 297 297 297 298 298 298 298 298 297 295 295 295 294 293 289 285 283 283 282 282 281 279 275 273 272 271 272 274 277 277 273 268 263 257 251 245 239 233 230 226 222 216 212 209 208 210 212 214 215 213 211 206 201 197 198 200 202 203 200 200 200 200 198 198 198 197 195
296 297 297 297 297 297 297 296 296 296 295 293 293 293 292 290 287 284 282 281 281 281 281 278 272 269 267 267 267 268 270 272 272 271 268 263 257 251 243 236 232 228 224 219 213 209 207 208 210 212 212 212 210 207 202 197 197 199 200 201 200 200 201 200 198 196 196 195 195
296 296 296 296 296 296 296 295 295 294 293 292 291 290 290 290 288 286 283 281 280 280 280 278 272 266 262 261 263 263 264 266 268 269 269 266 261 256 249 240 234 230 227 223 216 211 208 207 208 210 211 211 210 208 203 198 197 198 199 200 200 201 201 200 197 195 193 194 196
295 295 295 295 295 295 294 294 293 293 292 291 291 291 291 291 290 288 286 282 279 278 278 277 273 266 260 258 259 261 262 263 265 267 267 266 262 258 253 246 237 231 227 224 219 214 210 207 208 209 210 211 210 208 204 200 199 199 200 200 200 200 200 198 195 193 193 194 195
295 295 295 295 294 293 292 292 292 292 292 291 292 292 292 292 291 290 287 284 281 279 276 274 271 267 263 259 259 260 261 263 264 265 266 266 263 259 254 249 241 233 227 224 221 217 212 209 209 210 211 212 211 208 205 202 200 200 201 201 201 200 199 197 194 194 194 194 195
295 295 295 294 293 292 291 291 291 291 291 291 291 292 291 291 290 289 287 285 283 280 277 273 270 268 265 263 260 259 260 262 262 263 264 266 265 261 256 250 244 235 228 222 220 217 214 211 210 210 212 213 211 209 206 203 202 201 202 202 202 201 200 197 195 194 194 195 196
295 295 294 293 292 291 291 290 290 290 290 290 291 290 290 290 289 289 288 286 284 281 278 274 271 268 265 264 262 260 259 259 260 260 261 263 264 262 258 253 247 239 230 222 219 216 214 212 210 210 211 213 212 210 208 204 203 203 203 203 202 202 200 198 195 194 194 195 197
295 294 294 293 291 291 290 290 290 290 290 290 290 290 289 289 289 289 289 288 285 282 279 276 272 269 265 263 263 261 260 259 260 260 260 261 261 260 258 254 250 243 235 225 220 217 215 213 211 209 209 211 211 211 209 206 205 204 203 203 203 202 200 198 196 195 195 195 196
294 294 293 292 291 291 290 290 290 290 290 290 289 289 289 289 289 289 288 288 286 283 279 276 272 269 266 263 262 262 261 260 261 262 262 262 261 259 257 254 250 245 238 229 223 219 216 215 212 210 208 208 210 210 209 207 206 204 204 203 203 201 200 198 196 195 195 196 195
293 293 292 292 291 291 290 290 290 290 289 289 289 289 289 289 289 288 287 286 285 283 280 275 271 268 265 263 262 262 261 261 261 263 264 265 264 262 259 256 251 245 239 231 225 220 217 215 214 211 209 208 209 209 209 207 206 204 203 202 202 200 199 197 196 195 195 195 193
294 293 292 292 291 291 291 290 290 290 290 290 289 289 289 289 289 288 287 286 284 282 279 275 270 266 263 261 260 261 262 263 262 262 264 267 268 267 265 261 253 246 238 231 226 221 218 216 215 213 210 208 209 209 209 207 205 203 201 200 200 198 197 196 196 195 194 194 193
294 294 293 293 293 292 292 292 291 291 291 290 290 290 289 289 288 287 286 285 284 281 277 274 270 265 260 257 257 258 260 263 264 264 265 266 268 269 267 263 254 246 238 231 225 221 217 217 215 213 211 209 209 209 208 207 204 202 200 199 198 196 195 195 195 194 193 193 192
295 295 295 295 295 294 294 293 292 291 291 290 290 289 289 288 288 287 286 285 283 280 277 274 270 264 259 256 254 255 257 261 264 266 267 267 267 267 265 261 253 245 238 231 224 219 215 214 213 212 210 209 208 208 208 207 204 200 198 197 196 195 194 194 194 193 192 191 191
296 296 296 296 296 295 294 293 292 291 290 290 290 289 289 288 288 287 286 285 283 281 279 276 271 266 261 257 254 254 255 258 262 265 267 268 267 265 263 259 252 245 238 232 226 221 217 214 211 209 207 207 207 208 208 207 204 201 198 196 195 193 193 193 193 192 191 190 190
297 297 297 296 296 295 294 292 291 290 290 290 291 291 290 289 288 287 286 284 283 282 280 278 274 270 266 262 260 258 257 257 260 262 264 266 267 265 262 257 251 246 239 233 227 222 219 215 212 209 205 204 205 206 207 207 204 201 198 196 195 193 192 192 193 193 192 190 190
298 298 297 297 295 294 293 292 292 292 292 293 293 293 292 291 289 288 286 285 284 284 283 281 278 275 273 272 270 268 265 262 261 261 262 263 266 265 263 258 251 245 239 233 228 224 220 216 213 210 205 201 202 203 204 204 203 200 198 197 196 195 193 192 192 192 191 191 190
298 297 297 296 296 295 295 295 295 296 296 297 296 295 294 292 291 290 289 288 287 287 287 287 286 286 287 287 283 278 273 268 265 263 262 262 264 264 262 258 251 245 238 234 229 225 220 217 214 211 206 201 200 201 202 202 200 199 197 196 196 196 195 194 192 191 190 189 189
297 297 296 296 297 297 298 299 299 299 299 299 297 295 293 293 294 295 294 293 292 292 293 298 303 306 303 297 291 285 280 273 268 265 263 262 263 263 261 257 251 245 239 235 230 225 221 218 216 213 208 201 198 198 199 200 198 197 196 196 196 196 196 195 193 191 189 187 186
296 296 296 297 298 299 300 300 300 300 299 297 295 293 293 297 302 303 302 298 295 294 296 301 303 301 297 293 290 287 283 277 271 266 263 261 261 261 259 256 251 245 240 235 231 227 222 219 218 215 210 203 198 196 197 198 196 195 195 196 196 196 196 195 191 188 186 184 183
295 296 296 297 298 299 299 299 299 297 295 293 292 293 296 303 307 308 305 300 297 295 294 293 291 290 289 289 288 287 285 282 275 268 263 261 261 260 259 256 251 246 241 237 233 228 224 221 220 218 213 205 199 195 195 195 195 195 196 197 196 195 194 193 189 185 182 180 179
295 295 296 297 297 297 296 296 295 294 293 292 293 296 301 306 307 306 304 300 298 296 294 291 288 287 288 289 290 290 289 286 279 271 263 261 262 260 258 256 251 247 243 238 234 230 226 223 222 220 216 208 201 197 194 194 194 196 197 196 194 192 191 189 186 182 179 177 176
294 294 294 294 294 293 293 293 292 292 292 294 296 299 302 305 305 305 304 303 300 297 294 290 289 289 290 291 293 293 293 290 282 274 266 262 263 260 256 255 253 249 245 241 236 231 227 224 223 223 220 213 206 198 194 193 193 194 196 195 192 190 187 186 183 180 178 177 176
293 293 292 291 290 290 290 291 291 292 294 295 297 299 301 302 303 304 304 303 302 298 293 288 287 287 288 289 291 293 292 290 284 276 268 261 262 260 257 253 253 251 248 244 238 232 227 224 224 224 223 218 211 200 192 191 190 191 192 192 189 186 184 183 180 178 177 176 175
291 292 291 290 290 290 290 291 292 293 294 294 295 296 297 298 299 300 300 300 299 296 292 287 285 283 283 284 287 288 287 285 280 274 267 260 260 259 258 255 255 254 252 248 241 234 228 224 224 224 224 222 214 200 189 188 188 188 187 186 183 181 181 180 177 176 175 174 173
291 292 293 293 292 291 291 291 292 293 293 293 293 294 294 294 294 294 295 296 295 293 290 286 283 281 280 282 283 282 281 279 275 271 266 261 259 258 258 258 258 257 255 251 244 235 228 224 223 224 224 224 215 195 183 183 183 182 181 179 178 178 177 176 174 173 172 173 172
292 293 294 294 293 293 292 292 292 292 292 291 292 292 291 291 290 290 291 292 290 288 286 283 282 280 280 280 280 278 276 273 271 268 265 261 259 258 258 259 258 257 254 251 245 237 229 224 224 224 224 225 214 191 176 176 176 176 175 175 174 174 174 173 171 170 170 171 173
293 293 294 294 293 293 293 292 291 291 291 291 291 290 290 289 289 289 289 288 286 284 284 283 283 283 282 282 280 278 275 272 268 265 263 261 259 258 258 259 258 255 252 248 243 236 230 224 224 224 224 225 213 189 171 170 170 170 170 170 170 171 171 171 170 170 171 174 176
293 293 293 292 292 291 291 291 290 290 290 290 290 290 289 288 288 287 287 286 283 282 283 285 286 286 286 285 283 280 278 274 269 266 264 262 260 258 258 258 257 254 249 244 239 235 230 225 224 223 223 225 213 189 169 166 166 165 164 164 164 166 169 170 169 170 173 178 181
293 293 292 290 289 289 289 289 289 289 289 290 290 290 289 288 287 286 285 284 282 281 282 283 285 285 285 285 283 282 281 280 276 272 269 266 262 261 260 259 257 253 246 240 236 233 230 226 225 223 223 225 213 188 167 164 163 161 161 160 161 164 167 170 169 169 174 180 184
293 292 291 289 288 287 287 288 288 289 289 289 289 288 288 287 285 285 283 281 279 278 278 280 281 281 281 281 281 282 283 283 283 280 276 272 267 263 261 259 257 252 245 237 232 230 229 227 225 223 222 222 206 179 166 163 160 159 159 160 161 163 166 168 169 170 174 180 185